Weather History for Dallas/Ft Worth, TX

Change the Weather History Date:

Wednesday, November 27, 2013

  Actual Average Record
Temperature  
Mean Temperature 38 °F 52 °F  
Max Temperature 47 °F 62 °F 82 °F (1905)
Min Temperature 29 °F 42 °F 21 °F (1938)
Degree Days  
Heating Degree Days 27 13  
Month to date heating degree days 301 239  
Since 1 July heating degree days 345 311  
Cooling Degree Days 0 0  
Month to date cooling degree days 18 27  
Year to date cooling degree days 2930 2750  
Moisture  
Dew Point 17 °F    
Average Humidity 48    
Maximum Humidity 69    
Minimum Humidity 26    
Precipitation  
Precipitation 0.00 in 0.07 in 0.76 in (1958)
Month to date precipitation 2.12 2.48  
Year to date precipitation 26.64 33.36  
Snow  
Snow 0.00 in 0.00 in T in (1918)
Month to date snowfall T 0.0  
Since 1 July snowfall T 0.0  
Since 1 September snowfall T 0.0  
Snow Depth 0.00 in    
Sea Level Pressure  
Sea Level Pressure 30.40 in    
Wind  
Wind Speed 9 mph (North)    
Max Wind Speed 25 mph    
Max Gust Speed 29 mph    
Visibility 10 miles    
Events      
T = Trace of Precipitation, MM = Missing Value Source: NWS Daily Summary

Daily Weather History Graph

Daily Weather History Graph

Search for Another Location

Airport:

Trip Planner

Search our weather history database for the weather conditions in past years. The results will help you decide how hot, cold, wet, or windy it might be!

Date:

Astronomy

Nov. 27, 2013 Rise Set
Actual Time 7:09 AM CST 5:21 PM CST
Civil Twilight 6:42 AM CST 5:48 PM CST
Nautical Twilight 6:12 AM CST 6:19 PM CST
Astronomical Twilight 5:42 AM CST 6:48 PM CST
Moon 1:30 AM CST (11/27) 1:44 PM CST (11/27)
Length of Visible Light 11h 05m
Length of Day
10h 12m
Waning Crescent, 31% of the Moon is Illuminated
Nov 27
Waning Crescent
Dec 2
New
Dec 9
First Quarter
Dec 17
Full
Dec 25
Last Quarter

Hourly Weather History & Observations

Time (CST) Temp. Windchill Dew Point Humidity Pressure Visibility Wind Dir Wind Speed Gust Speed Precip Events Conditions
12:53 AM 37.0 °F 28.1 °F 21.9 °F 54% 30.38 in 10.0 mi North 15.0 mph - N/A   Clear
1:53 AM 35.1 °F 26.4 °F 21.9 °F 59% 30.39 in 10.0 mi North 12.7 mph - N/A   Clear
2:53 AM 34.0 °F 25.5 °F 23.0 °F 64% 30.40 in 10.0 mi NNW 11.5 mph - N/A   Clear
3:53 AM 33.1 °F 24.4 °F 21.0 °F 61% 30.40 in 10.0 mi NNW 11.5 mph - N/A   Clear
4:53 AM 30.9 °F 22.2 °F 21.0 °F 67% 30.41 in 10.0 mi NW 10.4 mph - N/A   Clear
5:53 AM 32.0 °F 22.1 °F 19.0 °F 59% 30.42 in 10.0 mi NNW 13.8 mph - N/A   Clear
6:53 AM 30.0 °F 20.5 °F 18.0 °F 61% 30.44 in 10.0 mi NNW 11.5 mph - N/A   Clear
7:53 AM 30.9 °F 22.2 °F 17.1 °F 57% 30.45 in 10.0 mi North 10.4 mph - N/A   Clear
8:53 AM 35.1 °F 27.4 °F 15.1 °F 44% 30.47 in 10.0 mi North 10.4 mph - N/A   Clear
9:53 AM 37.9 °F 29.6 °F 14.0 °F 38% 30.48 in 10.0 mi North 13.8 mph - N/A   Clear
10:53 AM 39.0 °F 30.3 °F 12.9 °F 34% 30.47 in 10.0 mi North 16.1 mph - N/A   Clear
11:53 AM 41.0 °F 35.8 °F 14.0 °F 33% 30.45 in 10.0 mi North 8.1 mph - N/A   Clear
12:53 PM 43.0 °F 37.7 °F 15.1 °F 32% 30.42 in 10.0 mi North 9.2 mph - N/A   Clear
1:53 PM 45.0 °F 41.8 °F 14.0 °F 29% 30.40 in 10.0 mi NNW 5.8 mph - N/A   Clear
2:53 PM 46.0 °F 41.9 °F 14.0 °F 28% 30.36 in 10.0 mi North 8.1 mph - N/A   Clear
3:53 PM 46.0 °F 43.9 °F 14.0 °F 28% 30.35 in 10.0 mi North 4.6 mph - N/A   Partly Cloudy
4:53 PM 44.1 °F 42.5 °F 15.1 °F 31% 30.36 in 10.0 mi North 3.5 mph - N/A   Partly Cloudy
5:53 PM 42.1 °F 40.2 °F 15.1 °F 34% 30.36 in 10.0 mi ENE 3.5 mph - N/A   Partly Cloudy
6:53 PM 41.0 °F - 15.1 °F 35% 30.38 in 10.0 mi Calm Calm - N/A   Scattered Clouds
7:53 PM 37.9 °F 35.5 °F 17.1 °F 43% 30.38 in 10.0 mi South 3.5 mph - N/A   Mostly Cloudy
8:53 PM 37.0 °F 34.5 °F 18.0 °F 46% 30.38 in 10.0 mi ESE 3.5 mph - N/A   Mostly Cloudy
9:53 PM 36.0 °F 33.3 °F 19.0 °F 50% 30.38 in 10.0 mi South 3.5 mph - N/A   Mostly Cloudy
10:53 PM 33.8 °F 27.7 °F 17.1 °F 50% 30.37 in 10.0 mi SSE 6.9 mph - N/A   Mostly Cloudy
11:53 PM 32.0 °F 25.6 °F 16.0 °F 52% 30.37 in 10.0 mi South 6.9 mph - N/A   Mostly Cloudy